Weather in Zakharovo

Russia / Kaluga Oblast     54°43′50″N   36°38′20″E
temp.,
°C
wind,
m/s
gust,
m/s
humid.,
%
clouds,
%
prec.,
mm/h
press.,
hPa
HPBL,
m
20 january, thu
thu2000:00−9sw41295100 0.0 1013285
03:00−7ssw41295100 0.1 1012343
06:00−6ssw51395100 0.1 1009381
09:00−5ssw51394100 0.1 1008459
12:00−3ssw61493100 0.1 1006539
15:00−4s61493100 0.1 1005574
18:00−5s61592100 0.1 1003654
21:00−4s61494100 0.5 1002736
21 january, fri
fri2100:00−4ssw61395100 0.6 1002668
03:00−4s51195100 1.4 1001545
06:00−4s41094100 0.1 999488
09:00−5sse41096100 0.6 999462
12:00−5sse4896100 1.2 998426
15:00−4s3797100 2.3 997438
18:00−5ssw2696100 0.3 997159
21:00−11sse269862 0.3 99889
22 january, sat
sat2200:00−13se269999 0.0 100093
03:00−11ese3797100 0.1 1000157
06:00−9ese2697100 0.3 1000114
09:00−6sse2697100 0.6 1002182
12:00−5s369493 0.1 1005405
15:00−5sse369292 0.2 1008489
18:00−10se229996 0.1 101114
21:00−11se249882 0.1 101457
23 january, sun
sun2300:00−11ese239884 0.1 101656
03:00−12e129891 0.2 101844
06:00−17ese1110086 0.1 10209
09:00−19ene11100100 0.1 102310
12:00−10ene129691 0.1 1025123
15:00−9ne249689 0.1 1026207
18:00−15ne22100100 0.0 102929
21:00−19ne22100100 0.1 103221
24 january, mon
mon2400:00−19ne24100100 0.0 103253
03:00−19nne27100100 0.1 103282
06:00−18nne39100100 0.0 1032128
09:00−14nne3109898 0.1 1031212
12:00−10ne4995100 0.2 1030273
15:00−8ne3795100 0.3 1028306
18:00−13nne2310098 0.0 102852
21:00−16ne11100100 0.1 102812